Location: Narrabri
(30.3170°S, 149.7830°E)
Time: 14:12:06
(UTC+10:00)

Tiangong 2 - Visible Passes

Search period start: 19 July 2018 00:00
Search period end: 29 July 2018 00:00
Orbit: 386 x 394 km, 42.8° (Epoch: 18 July)

Date Brightness Start Highest point End Pass type
(mag) Time Alt. Az. Time Alt. Az. Time Alt. Az.
19 Jul 3.6 04:53:39 21° ESE 04:53:39 21° ESE 04:54:52 10° ESE visible
19 Jul 2.9 06:26:24 10° WSW 06:28:46 18° SSW 06:31:09 10° SSE visible
20 Jul 2.5 05:31:29 26° S 05:31:29 26° S 05:33:46 10° SE visible
21 Jul 3.4 06:09:09 11° SW 06:10:31 13° SSW 06:12:06 10° SSE visible
22 Jul 3.8 05:14:19 12° SSE 05:14:19 12° SSE 05:14:49 10° SSE visible
23 Jul 3.7 05:51:57 10° SSW 05:52:19 10° S 05:52:42 10° S visible
26 Jul 3.7 06:12:43 10° S 06:14:00 12° SSE 06:15:16 10° SE visible
28 Jul 3.5 05:53:33 10° SSW 05:55:41 16° SSE 05:57:49 10° ESE visible
